Location: Monroe
(41.9160°N, 83.3980°W)
Time: 08:27:44
(UTC-04:00)

ISS - All Passes

Search period start: 29 March 2015 00:00
Search period end: 08 April 2015 00:00
Orbit: 396 x 406 km, 51.6° (Epoch: 29 March)

Date Brightness Start Highest point End Pass type
(mag) Time Alt. Az. Time Alt. Az. Time Alt. Az.
29 Mar - 01:35:32 10° W 01:38:19 25° NNW 01:41:06 10° NE night (unlit)
29 Mar - 03:13:36 10° NW 03:15:33 15° N 03:17:29 10° NE night (unlit)
29 Mar - 04:50:08 10° NW 04:52:48 23° NNE 04:55:27 10° ENE visible
29 Mar - 06:26:15 10° WNW 06:29:27 69° SW 06:32:40 10° SE visible
29 Mar - 23:05:37 10° SSW 23:08:27 28° SE 23:11:18 10° ENE night (unlit)
30 Mar - 00:41:42 10° W 00:44:46 38° NNW 00:47:50 10° NE night (unlit)
30 Mar - 02:19:46 10° NW 02:21:51 16° N 02:23:56 10° NNE night (unlit)
30 Mar - 03:56:50 10° NNW 03:59:10 18° NNE 04:01:30 10° ENE visible
30 Mar - 05:32:51 10° NW 05:36:04 62° NNE 05:39:16 10° ESE visible
30 Mar - 07:10:09 10° W 07:12:10 15° SW 07:14:06 10° S daylight
30 Mar - 22:13:20 10° SSE 22:15:12 15° SE 22:17:09 10° E night (unlit)
30 Mar - 23:48:03 10° WSW 23:51:17 66° NNW 23:54:32 10° NE night (unlit)
31 Mar - 01:25:47 10° WNW 01:28:10 18° NNW 01:30:32 10° NNE night (unlit)
31 Mar - 03:03:25 10° NNW 03:05:28 15° N 03:07:32 10° NE night (unlit)
31 Mar - 04:39:32 10° NW 04:42:34 36° NNE 04:45:35 10° E visible
31 Mar - 06:16:02 10° WNW 06:18:54 29° SW 06:21:45 10° SSE visible
31 Mar - 22:54:38 10° SW 22:57:51 65° SE 23:01:05 10° ENE night (unlit)
01 Apr - 00:31:46 10° WNW 00:34:29 24° NNW 00:37:12 10° NE night (unlit)
01 Apr - 02:09:47 10° NW 02:11:44 15° N 02:13:39 10° NE night (unlit)
01 Apr - 03:46:13 10° NW 03:48:57 24° NNE 03:51:42 10° ENE night (unlit)
01 Apr - 05:22:22 10° WNW 05:25:34 59° SW 05:28:44 10° SE visible
01 Apr - 22:01:31 10° SSW 22:04:27 32° SE 22:07:26 10° ENE visible
01 Apr - 23:37:49 10° W 23:40:51 34° NNW 23:43:52 10° NE night (unlit)
02 Apr - 01:15:54 10° NW 01:17:57 15° N 01:19:59 10° NNE night (unlit)
02 Apr - 02:52:51 10° NNW 02:55:15 19° NNE 02:57:40 10° ENE night (unlit)
02 Apr - 04:28:52 10° NW 04:32:06 71° NNE 04:35:19 10° ESE visible
02 Apr - 06:06:28 10° W 06:08:09 13° SW 06:09:44 10° SSW visible
02 Apr - 21:08:57 10° S 21:11:07 17° SE 21:13:21 10° E visible
02 Apr - 22:44:02 10° WSW 22:47:15 57° NNW 22:50:28 10° NE visible
03 Apr - 00:21:51 10° WNW 00:24:10 18° NNW 00:26:28 10° NNE night (unlit)
03 Apr - 01:59:23 10° NNW 02:01:29 16° N 02:03:36 10° NE night (unlit)
03 Apr - 03:35:26 10° NW 03:38:32 40° NNE 03:41:36 10° E night (unlit)
03 Apr - 05:12:04 10° WNW 05:14:49 25° SW 05:17:31 10° SSE night (unlit)
03 Apr - 21:50:28 10° SW 21:53:43 76° SE 21:56:58 10° ENE visible
03 Apr - 23:27:45 10° WNW 23:30:24 22° NNW 23:33:03 10° NE visible
04 Apr - 01:05:42 10° NW 01:07:40 15° N 01:09:36 10° NE night (unlit)
04 Apr - 02:42:02 10° NW 02:44:51 26° NNE 02:47:40 10° E night (unlit)
04 Apr - 04:18:14 10° WNW 04:21:24 50° SW 04:24:32 10° SE night (unlit)
04 Apr - 20:57:11 10° SSW 21:00:14 37° SE 21:03:17 10° ENE visible
04 Apr - 22:33:41 10° W 22:36:40 31° NNW 22:39:38 10° NE visible
05 Apr - 00:11:47 10° NW 00:13:48 15° N 00:15:48 10° NNE night (unlit)
05 Apr - 01:48:36 10° NW 01:51:05 20° NNE 01:53:34 10° ENE night (unlit)
05 Apr - 03:24:38 10° NW 03:27:52 81° NE 03:31:06 10° ESE night (unlit)
05 Apr - 05:02:40 10° WSW 05:03:52 11° SW 05:04:57 10° SSW night (unlit)
05 Apr - 20:04:23 10° S 20:06:47 19° SE 20:09:14 10° E daylight
05 Apr - 21:39:46 10° WSW 21:42:58 51° NNW 21:46:10 10° NE visible
05 Apr - 23:17:40 10° NW 23:19:55 17° N 23:22:10 10° NNE visible
06 Apr - 00:55:04 10° NNW 00:57:14 16° N 00:59:24 10° NE night (unlit)
06 Apr - 02:31:06 10° NW 02:34:14 44° NNE 02:37:21 10° ESE night (unlit)
06 Apr - 04:07:51 10° W 04:10:28 22° SW 04:13:02 10° S night (unlit)
06 Apr - 20:46:04 10° SW 20:49:19 87° SSE 20:52:36 10° NE visible
06 Apr - 22:23:29 10° WNW 22:26:04 21° NNW 22:28:38 10° NE visible
07 Apr - 00:01:21 10° NW 00:03:20 15° N 00:05:18 10° NE visible
07 Apr - 01:37:36 10° NW 01:40:29 28° NNE 01:43:22 10° E night (unlit)
07 Apr - 03:13:52 10° WNW 03:16:59 43° SW 03:20:03 10° SSE night (unlit)
07 Apr - 19:52:39 10° SSW 19:55:44 43° SE 19:58:52 10° ENE daylight
07 Apr - 21:29:19 10° W 21:32:13 29° NNW 21:35:08 10° NE visible
07 Apr - 23:07:24 10° NW 23:09:23 15° N 23:11:21 10° NE visible
